Regional Weather Roundup
Issued by NWS Goodland, KS

Home | Current Version | Previous Version | Graphics & Text | Print | Product List | Glossary On
Versions: 1 2 3 4 5 6 7 8 9 10 11 12 13 14 15 16 17 18 19 20 21 22 23 24 25 26 27 28 29 30 31 32 33 34 35 36 37 38 39 40 41 42 43 44 45 46 47 48 49 50
000
ASUS43 KGLD 280859
RWRGLD

GOODLAND FORECAST AREA HOURLY WEATHER ROUNDUP
NATIONAL WEATHER SERVICE GOODLAND KS
300 AM MDT MON JUL 28 2014

...OFFICIAL OBSERVATIONS...

CITY           SKY/WX    TMP DP  RH WIND       PRES   REMARKS
GOODLAND KS    CLOUDY    62  54  74 S7        30.32S
HILL CITY KS   MOCLDY    61  54  77 N6        30.26R
IMPERIAL NEB   PTCLDY    60  51  72 E7        30.32S
MCCOOK NEB     PTCLDY    60  52  74 NE5       30.29S
AKRON CO       MOCLDY    63  48  58 S3        30.35S
BURLINGTON CO  CLOUDY    64  54  69 S7        30.34S
LIMON CO       CLOUDY    60  57  89 S5        30.39F
$$

...UNOFFICIAL OBSERVATIONS...

CITY           SKY/WX    TMP DP  RH WIND       PRES   REMARKS
COLBY KS       CLEAR     61  55  82 CALM      30.31S
LENORA KS        N/A     62  32  32 MISG        N/A
NORTON KS      CLEAR     57  52  82 N3        30.26S
WAKEENEY KS      N/A     68  47  47 MISG        N/A
TRENTON NEB      N/A     60  32  34 NE7         N/A
KIT CARSON CO    N/A     68  62  79 CALM        N/A
YUMA CO          N/A     61  51  70 CALM        N/A
$$


USA.gov is the U.S. government's official web portal to all federal, state and local government web resources and services.